TimeEDT,TemperatureF,Dew PointF,Humidity,Sea Level PressureIn,VisibilityMPH,Wind Direction,Wind SpeedMPH,Gust SpeedMPH,PrecipitationIn,Events,Conditions,WindDirDegrees,DateUTC
12:53 AM,64.0,60.1,87,29.76,10.0,Variable,5.8,-,N/A,,Overcast,0,2013-09-22 04:53:00
1:53 AM,63.0,59.0,87,29.73,10.0,SE,10.4,16.1,N/A,,Overcast,140,2013-09-22 05:53:00
2:53 AM,63.0,57.9,84,29.71,10.0,SSE,8.1,-,N/A,,Overcast,160,2013-09-22 06:53:00
3:53 AM,62.1,59.0,90,29.68,10.0,South,8.1,16.1,0.00,,Overcast,170,2013-09-22 07:53:00
4:53 AM,64.0,60.1,87,29.66,10.0,SSE,9.2,20.7,N/A,,Overcast,160,2013-09-22 08:53:00
5:53 AM,64.0,61.0,90,29.65,9.0,SSE,9.2,-,0.00,Rain,Light Rain,160,2013-09-22 09:53:00
6:53 AM,64.9,63.0,93,29.62,6.0,Variable,5.8,-,0.06,Rain,Light Rain,0,2013-09-22 10:53:00
7:48 AM,66.2,62.6,88,29.59,1.8,SSE,8.1,23.0,0.08,Rain,Rain,160,2013-09-22 11:48:00
7:53 AM,66.0,63.0,90,29.61,3.0,South,10.4,23.0,0.08,Rain,Light Rain,170,2013-09-22 11:53:00
8:53 AM,66.0,63.0,90,29.61,10.0,Variable,6.9,-,0.02,,Overcast,0,2013-09-22 12:53:00
9:51 AM,66.2,62.6,88,29.60,1.5,Variable,6.9,-,0.11,Rain,Light Rain,0,2013-09-22 13:51:00
9:53 AM,66.0,63.0,90,29.60,0.8,SW,10.4,16.1,0.16,Rain,Heavy Rain,220,2013-09-22 13:53:00
10:03 AM,64.4,60.8,88,29.58,0.8,SW,8.1,-,0.10,Rain,Heavy Rain,220,2013-09-22 14:03:00
10:09 AM,64.4,60.8,88,29.58,1.8,SW,8.1,-,0.11,Rain,Rain,220,2013-09-22 14:09:00
10:21 AM,62.6,60.8,94,29.58,0.8,WSW,9.2,21.9,0.22,Rain,Heavy Rain,240,2013-09-22 14:21:00
10:27 AM,62.6,60.8,94,29.58,1.0,WSW,8.1,21.9,0.25,Rain,Heavy Rain,240,2013-09-22 14:27:00
10:31 AM,62.6,60.8,94,29.58,0.8,Variable,5.8,-,0.30,Rain,Heavy Rain,0,2013-09-22 14:31:00
10:41 AM,62.6,60.8,94,29.58,1.8,Variable,3.5,-,0.33,Rain,Light Rain,0,2013-09-22 14:41:00
10:44 AM,62.6,60.8,94,29.58,3.0,Calm,Calm,-,0.33,Rain,Light Rain,0,2013-09-22 14:44:00
10:53 AM,64.0,61.0,90,29.59,10.0,Calm,Calm,-,0.33,Rain,Light Rain,0,2013-09-22 14:53:00
11:15 AM,64.4,62.6,94,29.58,10.0,Calm,Calm,-,0.00,Rain,Light Rain,0,2013-09-22 15:15:00
11:42 AM,66.2,62.6,88,29.58,6.0,Variable,4.6,-,0.03,Rain,Light Rain,0,2013-09-22 15:42:00
11:53 AM,66.0,63.0,90,29.58,7.0,Variable,4.6,-,0.03,Rain,Light Rain,0,2013-09-22 15:53:00
12:21 PM,66.2,62.6,88,29.58,9.0,SW,8.1,-,0.00,Rain,Light Rain,230,2013-09-22 16:21:00
12:23 PM,66.2,62.6,88,29.58,2.0,Variable,5.8,-,0.04,Rain,Light Rain,0,2013-09-22 16:23:00
12:26 PM,64.4,62.6,94,29.58,1.2,West,8.1,-,0.05,Rain,Heavy Rain,260,2013-09-22 16:26:00
12:35 PM,62.6,60.8,94,29.59,1.5,Variable,5.8,-,0.10,Rain,Heavy Rain,0,2013-09-22 16:35:00
12:40 PM,62.6,60.8,94,29.60,2.0,Variable,3.5,-,0.10,Rain,Rain,0,2013-09-22 16:40:00
12:53 PM,63.0,61.0,93,29.61,3.0,Variable,3.5,-,0.13,Rain,Light Rain,0,2013-09-22 16:53:00
1:02 PM,62.6,60.8,94,29.59,9.0,Calm,Calm,-,0.00,Rain,Light Rain,0,2013-09-22 17:02:00
1:53 PM,64.9,61.0,87,29.60,10.0,WSW,3.5,-,0.00,,Overcast,250,2013-09-22 17:53:00
2:42 PM,66.2,62.6,88,29.59,10.0,SSE,4.6,-,0.00,,Mostly Cloudy,160,2013-09-22 18:42:00
2:53 PM,66.0,62.1,87,29.60,10.0,Variable,3.5,-,0.00,,Mostly Cloudy,0,2013-09-22 18:53:00
3:00 PM,64.4,60.8,88,29.58,10.0,Calm,Calm,-,N/A,,Mostly Cloudy,0,2013-09-22 19:00:00
3:15 PM,64.4,62.6,94,29.58,6.0,SSE,3.5,-,0.01,Rain,Light Rain,150,2013-09-22 19:15:00
3:53 PM,64.9,62.1,90,29.59,10.0,SSE,3.5,-,0.03,Rain,Light Rain,160,2013-09-22 19:53:00
4:13 PM,66.2,62.6,88,29.58,10.0,Variable,3.5,-,0.00,,Overcast,0,2013-09-22 20:13:00
4:43 PM,64.4,62.6,94,29.58,10.0,Calm,Calm,-,0.00,,Mostly Cloudy,0,2013-09-22 20:43:00
4:53 PM,64.9,62.1,90,29.60,10.0,Calm,Calm,-,0.00,,Overcast,0,2013-09-22 20:53:00
5:22 PM,64.4,62.6,94,29.59,10.0,Calm,Calm,-,N/A,,Overcast,0,2013-09-22 21:22:00
5:53 PM,64.0,55.9,75,29.62,6.0,West,4.6,-,0.00,Rain,Rain,280,2013-09-22 21:53:00
6:53 PM,60.1,55.9,86,29.64,9.0,West,5.8,-,0.04,Rain,Light Rain,280,2013-09-22 22:53:00
7:53 PM,57.9,53.1,84,29.66,10.0,WNW,10.4,17.3,0.01,Rain,Light Rain,300,2013-09-22 23:53:00
8:53 PM,57.0,51.1,81,29.68,10.0,WNW,8.1,-,0.00,,Overcast,300,2013-09-23 00:53:00
9:53 PM,55.9,48.0,75,29.68,10.0,WNW,9.2,17.3,N/A,,Overcast,300,2013-09-23 01:53:00
10:53 PM,54.0,46.9,77,29.70,10.0,West,10.4,19.6,0.01,,Overcast,280,2013-09-23 02:53:00
11:53 PM,53.1,46.0,77,29.71,10.0,WNW,10.4,21.9,N/A,,Overcast,300,2013-09-23 03:53:00